Stations météo

Publicité
Colmar, France (7197): Température de l'air & dewpoint: 13.11.2017 20:00:00 - 19.11.2017 20:00:00 (CET)Colmar, France (7197): Température de l'air 5cm: 13.11.2017 20:00:00 - 19.11.2017 20:00:00 (CET)Colmar, France (7197): Température de l'air -20cm & Température de l'air -100cm: 13.11.2017 20:00:00 - 19.11.2017 20:00:00 (CET)Colmar, France (7197): Vitesse du vent & gusts: 13.11.2017 20:00:00 - 19.11.2017 20:00:00 (CET)Colmar, France (7197): Direction du vent: 13.11.2017 20:00:00 - 19.11.2017 20:00:00 (CET)Colmar, France (7197): reduced air pressure: 13.11.2017 20:00:00 - 19.11.2017 20:00:00 (CET)Colmar, France (7197): visibility: 13.11.2017 20:00:00 - 19.11.2017 20:00:00 (CET)Colmar, France (7197): Ensoleillement: 13.11.2017 20:00:00 - 19.11.2017 20:00:00 (CET)Colmar, France (7197): Quantités de précipitations: 13.11.2017 20:00:00 - 19.11.2017 20:00:00 (CET)
Date & Time tt [°C] td [°C] tt 5cm [°C] tt -20cm [°C] tt -100cm [°C] ff [km/h] ff [knt] fx [km/h] fx [knt] dd ppp [hPa] vv [km] sd [min] rr [mm]
19.11.2017 20:00:00 2,3 1,1 -1,4 5,6 10,6 8 4 15 8 SW 1025,3 16 0 0,0
19.11.2017 19:00:00 1,7 0,1 -1,1 5,9 10,6 4 2 14 8 SSW 1024,9 20 0 0,0
19.11.2017 18:00:00 3,5 -0,2 -0,7 6,1 10,7 10 5 13 7 SW 1024,2 20 0 0,0
19.11.2017 17:00:00 4,1 -0,7 1,2 6,1 10,6 6 4 12 7 W 1023,5 20 21 0,0
19.11.2017 16:00:00 8,2 1,3 10,7 6,1 10,7 3 2 12 7 WNW 1022,7 20 60 0,0
19.11.2017 15:00:00 8,5 1,4 7,8 5,9 10,7 5 3 9 5 SW 1022,2 20 37 0,0
19.11.2017 14:00:00 6,9 1,4 7,4 5,7 10,7 5 3 19 10 NW 1022,4 20 1 0,0
19.11.2017 13:00:00 7,5 2,2 7,6 5,5 10,7 4 2 14 7 NW 1022,1 20 3 0,0
19.11.2017 12:00:00 7,0 3,2 6,9 5,3 10,7 6 3 14 8 SSW 1022,2 20 1 0,0
19.11.2017 11:00:00 6,7 3,3 5,9 5,2 10,7 8 4 18 10 WSW 1022,0 20 0 0,0
19.11.2017 10:00:00 5,2 2,9 4,4 5,2 10,7 11 6 24 13 SW 1021,3 20 2 0,0
19.11.2017 09:00:00 4,2 2,1 3,4 5,2 10,7 14 7 23 13 SSW 1020,9 20 0 0,0
19.11.2017 08:00:00 4,1 1,8 3,2 5,2 10,7 12 7 22 12 SSW 1020,2 20 0 0,0
19.11.2017 07:00:00 3,5 1,4 2,7 5,3 10,7 14 7 36 20 SSW 1019,6 20 0 0,0
19.11.2017 06:00:00 3,2 1,6 2,6 5,3 10,7 22 12 38 20 SW 1019,4 20 0 0,2
19.11.2017 05:00:00 3,8 1,3 3,3 5,4 10,7 20 11 37 20 SW 1019,9 20 0 0,0
19.11.2017 04:00:00 4,0 1,5 3,4 5,4 10,7 17 9 33 18 SSW 1020,1 20 0 0,0
19.11.2017 03:00:00 4,0 1,4 3,5 5,5 10,7 17 9 32 18 SSW 1020,5 20 0 0,0
19.11.2017 02:00:00 4,3 1,2 3,5 5,5 10,7 19 10 35 19 SW 1021,1 20 0 0,0
19.11.2017 01:00:00 4,6 0,7 3,7 5,6 10,7 22 12 37 20 SW 1021,6 20 0 0,0
19.11.2017 00:00:00 4,6 0,7 4,0 5,6 10,7 21 11 35 19 SW 1022,2 20 0 0,0
18.11.2017 23:00:00 4,5 0,6 3,8 5,7 10,7 18 10 28 15 SW 1022,8 20 0 0,0
18.11.2017 22:00:00 4,2 1,1 3,3 5,9 10,7 12 7 22 12 SW 1023,7 20 0 0,0
18.11.2017 21:00:00 3,8 0,8 2,7 6,0 10,7 9 5 17 9 SSW 1024,3 20 0 0,0
18.11.2017 20:00:00 3,4 0,6 0,4 6,2 10,8 9 5 14 8 SSW 1024,5 20 0 0,0
18.11.2017 19:00:00 2,8 0,0 1,5 6,5 10,7 5 3 14 7 SW 1024,9 20 0 0,0
18.11.2017 18:00:00 3,6 0,1 2,1 6,7 10,8 8 4 15 8 SSW 1024,7 20 0 0,0
18.11.2017 17:00:00 5,0 0,0 4,1 6,7 10,8 10 5 16 9 SSW 1024,3 20 19 0,0
18.11.2017 16:00:00 6,9 -0,1 6,9 6,7 10,8 13 7 25 13 SSW 1023,7 20 60 0,0
18.11.2017 15:00:00 7,8 0,7 9,9 6,5 10,8 12 7 24 13 SSW 1024,0 20 60 0,0
18.11.2017 14:00:00 8,0 0,9 8,0 6,2 10,8 13 7 21 11 SW 1024,0 20 47 0,0
18.11.2017 13:00:00 7,3 1,4 6,3 6,0 10,8 11 6 24 13 SSW 1024,8 20 19 0,0
18.11.2017 12:00:00 6,0 3,2 6,7 5,8 10,8 5 3 8 5 WSW 1025,8 18 0 0,0
18.11.2017 11:00:00 5,4 4,5 5,5 5,7 10,8 3 1 5 3 S 1025,8 10 0 0,0
18.11.2017 10:00:00 4,8 4,5 4,9 5,6 10,8 2 1 5 3 SSE 1025,9 9 0 0,0
18.11.2017 09:00:00 4,6 4,5 3,6 5,6 10,8 0 0 2 1 N 1025,7 4,2 0 0,0
18.11.2017 08:00:00 3,8 3,5 3,4 5,6 10,8 0 0 0 0 N 1025,9 0,2 0 0,0
18.11.2017 07:00:00 4,2 4,1 4,0 5,6 10,9 0 0 4 2 N 1025,5 0,2 0 0,0
18.11.2017 06:00:00 4,4 4,3 4,3 5,6 10,9 2 1 4 2 SW 1025,4 0,4 0 0,0
18.11.2017 05:00:00 4,5 4,4 4,4 5,6 10,9 0 0 3 1 N 1025,8 0,3 0 0,0
18.11.2017 04:00:00 4,6 4,5 4,4 5,6 10,9 0 0 3 2 N 1025,8 0,5 0 0,0
18.11.2017 03:00:00 4,6 4,5 4,5 5,6 10,9 0 0 3 2 N 1026,0 1,0 0 0,0
18.11.2017 02:00:00 4,6 4,5 4,5 5,5 10,9 0 0 3 1 N 1025,9 0,4 0 0,0
18.11.2017 01:00:00 4,5 4,4 4,5 5,6 10,9 0 0 3 2 N 1026,1 0,3 0 0,0
18.11.2017 00:00:00 4,5 4,4 4,5 5,5 10,9 0 0 8 5 N 1026,6 0,4 0 0,0
17.11.2017 23:00:00 4,6 4,5 4,5 5,5 10,9 5 3 15 8 E 1026,7 0,5 0 0,0
17.11.2017 22:00:00 4,6 4,5 4,5 5,5 10,9 9 5 16 9 ENE 1026,8 0,8 0 0,0
17.11.2017 21:00:00 4,6 4,3 4,5 5,5 11,0 8 4 14 8 ENE 1026,8 1,7 0 0,0
17.11.2017 20:00:00 4,6 4,0 4,5 5,5 11,0 6 3 12 7 ENE 1026,6 2,9 0 0,0
17.11.2017 19:00:00 4,7 3,7 4,6 5,5 11,0 8 4 14 7 N 1026,8 4,7 0 0,0
17.11.2017 18:00:00 4,7 3,7 4,7 5,5 11,0 6 4 18 10 ENE 1026,8 5 0 0,0
17.11.2017 17:00:00 5,1 3,6 5,1 5,4 11,0 8 5 17 9 E 1026,6 10 0 0,0
17.11.2017 16:00:00 5,5 3,5 5,6 5,3 11,0 6 3 14 8 ENE 1026,4 10 0 0,0
17.11.2017 15:00:00 5,2 3,0 5,6 5,1 11,0 8 4 16 9 NE 1026,4 11 0 0,0
17.11.2017 14:00:00 5,4 2,9 5,5 4,9 11,0 8 5 15 8 NNE 1026,9 12 0 0,0
17.11.2017 13:00:00 4,7 1,9 4,9 4,6 11,1 4 2 11 6 NNE 1027,4 11 0 0,0
17.11.2017 12:00:00 3,8 1,2 4,7 4,4 11,1 4 2 7 4 N 1027,7 10 0 0,0
17.11.2017 11:00:00 3,6 0,6 4,1 4,3 11,1 2 1 4 2 N 1027,8 11 0 0,0
17.11.2017 10:00:00 2,6 0,5 2,7 4,2 11,1 2 1 5 3 SE 1028,0 9 0 0,0
17.11.2017 09:00:00 1,9 0,3 1,6 4,2 11,1 3 1 6 3 SE 1028,3 8 0 0,0
17.11.2017 08:00:00 1,4 0,5 1,2 4,1 11,1 4 2 8 5 SSE 1028,0 6 0 0,0
17.11.2017 07:00:00 1,0 0,3 0,8 4,2 11,1 3 1 8 4 SE 1027,8 5 0 0,0
17.11.2017 06:00:00 0,7 0,0 0,6 4,3 11,2 4 2 9 5 SE 1027,5 4,5 0 0,0
17.11.2017 05:00:00 0,9 -0,1 0,6 4,3 11,2 0 0 6 3 N 1027,7 5 0 0,0
17.11.2017 04:00:00 1,0 -0,2 0,7 4,4 11,2 3 2 5 3 SSW 1027,7 7 0 0,0
17.11.2017 03:00:00 1,1 -0,1 0,4 4,4 11,2 3 1 4 2 SSW 1027,7 7 0 0,0
17.11.2017 02:00:00 1,2 -0,1 1,2 4,4 11,2 2 1 4 2 SSE 1028,1 7 0 0,0
17.11.2017 01:00:00 1,2 -0,1 1,2 4,4 11,3 0 0 3 2 N 1027,8 8 0 0,0
17.11.2017 00:00:00 1,2 -0,1 1,2 4,5 11,3 2 1 5 3 ENE 1027,9 9 0 0,0
16.11.2017 23:00:00 1,1 -0,1 0,8 4,5 11,3 0 0 3 2 N 1027,9 10 0 0,0
16.11.2017 22:00:00 0,7 -0,2 -0,6 4,6 11,3 3 2 5 3 ESE 1027,7 9 0 0,0
16.11.2017 21:00:00 -0,2 -1,3 -1,3 4,7 11,3 2 1 10 5 ESE 1027,9 6 0 0,0
16.11.2017 20:00:00 1,6 -0,2 1,4 4,7 11,3 0 0 5 3 N 1027,1 12 0 0,0
16.11.2017 19:00:00 1,7 -0,1 1,7 4,7 11,3 3 2 6 4 SSE 1026,9 12 0 0,0
16.11.2017 18:00:00 1,8 0,2 1,7 4,8 11,3 0 0 8 5 N 1026,9 12 0 0,0
16.11.2017 17:00:00 1,8 0,2 1,8 4,8 11,4 2 1 7 4 NNW 1026,8 11 0 0,0
16.11.2017 16:00:00 1,9 0,3 2,1 4,8 11,4 3 2 9 5 NNE 1026,3 10 0 0,0
16.11.2017 15:00:00 1,7 0,4 1,9 4,7 11,4 3 2 8 5 NNW 1026,4 8 0 0,0
16.11.2017 14:00:00 1,8 0,3 2,2 4,7 11,4 2 1 6 3 NNW 1026,2 11 0 0,0
16.11.2017 13:00:00 1,6 0,3 2,0 4,6 11,4 4 2 10 6 WNW 1026,4 10 0 0,0
16.11.2017 12:00:00 1,5 0,3 2,0 4,5 11,4 5 3 12 6 WNW 1026,4 10 0 0,0
16.11.2017 11:00:00 1,6 0,0 1,6 4,5 11,5 4 2 8 4 E 1026,9 14 0 0,0
16.11.2017 10:00:00 1,1 0,4 1,3 4,5 11,5 6 3 9 5 NW 1026,6 7 0 0,0
16.11.2017 09:00:00 1,0 0,6 0,8 4,5 11,4 8 4 10 5 NW 1026,5 7 0 0,0
16.11.2017 08:00:00 0,8 0,4 0,7 4,6 11,5 4 2 10 6 NW 1026,3 6 0 0,0
16.11.2017 07:00:00 0,7 0,3 0,7 4,6 11,5 8 4 14 7 NNW 1025,9 4,5 0 0,0
16.11.2017 06:00:00 0,9 0,5 0,8 4,7 11,5 5 3 13 7 NNW 1025,8 7 0 0,0
16.11.2017 05:00:00 1,1 0,8 1,0 4,7 11,6 8 4 10 5 NNW 1025,8 1,5 0 0,0
16.11.2017 04:00:00 1,4 1,1 1,4 4,7 11,6 6 3 8 5 WNW 1025,7 1,2 0 0,0
16.11.2017 03:00:00 1,3 0,9 1,4 4,7 11,6 0 0 6 3 N 1025,9 7 0 0,0
16.11.2017 02:00:00 1,3 1,0 1,4 4,7 11,6 4 2 7 4 SSE 1026,1 4,8 0 0,0
16.11.2017 01:00:00 1,5 1,2 1,7 4,8 11,6 3 1 8 4 ESE 1026,3 2,2 0 0,0
16.11.2017 00:00:00 1,6 1,5 1,6 4,8 11,6 0 0 6 3 N 1026,6 1,4 0 0,0
15.11.2017 23:00:00 1,6 1,3 1,6 4,8 11,6 0 0 5 3 N 1026,4 0,3 0 0,0
15.11.2017 22:00:00 1,6 1,3 1,7 4,8 11,7 4 2 6 3 SE 1026,7 0,8 0 0,0
15.11.2017 21:00:00 1,6 1,3 1,6 4,8 11,7 4 2 11 6 E 1026,8 0,4 0 0,0
15.11.2017 20:00:00 1,7 1,3 1,7 4,9 11,7 8 5 16 9 ENE 1026,9 2,6 0 0,0
15.11.2017 19:00:00 2,0 1,4 1,8 4,9 11,7 6 3 16 9 ENE 1027,0 4,5 0 0,0
15.11.2017 18:00:00 1,8 1,1 1,8 4,9 11,7 9 5 16 9 E 1026,7 6 0 0,0
15.11.2017 17:00:00 1,9 1,0 1,9 4,9 11,8 6 4 16 9 ENE 1026,4 7 0 0,0
15.11.2017 16:00:00 2,0 1,1 2,4 4,8 11,8 6 4 16 9 ENE 1026,3 7 0 0,0
15.11.2017 15:00:00 1,9 1,2 2,8 4,7 11,8 9 5 18 10 E 1026,5 9 0 0,0
15.11.2017 14:00:00 1,8 1,5 2,6 4,5 11,8 8 4 16 8 NE 1026,8 6 0 0,0
15.11.2017 13:00:00 1,5 1,4 2,3 4,3 11,8 8 4 13 7 ENE 1027,4 2,4 0 0,0
15.11.2017 12:00:00 1,2 1,1 1,7 4,2 11,8 6 3 14 7 ESE 1028,0 1,7 0 0,0
15.11.2017 11:00:00 0,8 0,7 0,8 4,0 11,8 7 4 16 9 ENE 1028,7 0,6 0 0,0
15.11.2017 10:00:00 0,2 0,1 0,0 4,0 11,8 0 0 0 0 N 1028,8 0,3 0 0,0
15.11.2017 09:00:00 -0,3 -0,4 -0,2 4,0 11,9 0 0 0 0 N 1028,9 0,3 0 0,0
15.11.2017 08:00:00 -0,3 -0,4 -0,3 4,0 11,9 0 0 0 0 N 1028,7 0,2 0 0,0
15.11.2017 07:00:00 -0,5 -0,6 -0,6 4,1 11,9 0 0 0 0 N 1028,2 0,8 0 0,0
15.11.2017 06:00:00 -0,6 -0,7 -0,8 4,2 11,9 0 0 0 0 N 1028,0 0,2 0 0,0
15.11.2017 05:00:00 -0,9 -1,0 -1,2 4,3 11,9 0 0 0 0 N 1028,2 0,2 0 0,0
15.11.2017 04:00:00 -1,6 -1,9 -2,7 4,4 11,9 0 0 0 0 N 1028,2 1,0 0 0,0
15.11.2017 03:00:00 -2,7 -3,1 -3,5 4,6 11,9 0 0 0 0 N 1028,6 0,3 0 0,0
15.11.2017 02:00:00 -2,7 -3,1 -4,8 4,8 11,9 0 0 0 0 N 1028,5 0,1 0 0,0
15.11.2017 01:00:00 -3,3 -4,0 -5,0 5,0 11,9 0 0 0 0 N 1028,8 5 0 0,0
15.11.2017 00:00:00 -3,3 -4,3 -5,0 5,2 12,0 0 0 0 0 N 1029,1 7 0 0,0
14.11.2017 23:00:00 -1,9 -2,3 -4,7 5,5 12,0 0 0 0 0 N 1028,9 7 0 0,0
14.11.2017 22:00:00 -1,8 -2,4 -4,3 5,7 12,0 0 0 4 2 N 1029,3 1,9 0 0,0
14.11.2017 21:00:00 -1,2 -1,8 -3,5 6,0 12,0 0 0 3 1 N 1029,0 2,2 0 0,0
14.11.2017 20:00:00 0,2 -0,7 -2,7 6,2 12,0 2 1 8 4 ENE 1028,6 2,2 0 0,0
14.11.2017 19:00:00 0,8 -0,1 -1,8 6,4 12,0 5 3 7 4 N 1028,4 6 0 0,0
14.11.2017 18:00:00 3,1 1,6 0,1 6,6 12,1 4 2 11 6 NE 1027,9 12 0 0,0
14.11.2017 17:00:00 4,3 2,3 3,4 6,6 12,1 5 3 14 8 ENE 1027,2 19 27 0,0
14.11.2017 16:00:00 5,9 3,1 7,6 6,5 12,1 9 5 19 11 NE 1026,7 20 60 0,0
14.11.2017 15:00:00 5,9 3,4 8,2 6,3 12,1 11 6 18 10 NE 1026,6 20 56 0,0
14.11.2017 14:00:00 4,8 3,9 5,7 6,0 12,1 6 3 14 8 ENE 1026,7 14 20 0,0
14.11.2017 13:00:00 3,8 3,7 4,0 5,8 12,1 8 4 16 9 ENE 1027,1 6 2 0,0
14.11.2017 12:00:00 3,0 2,9 3,6 5,6 12,1 10 5 15 8 N 1027,5 1,3 0 0,0
14.11.2017 11:00:00 3,0 2,9 2,0 5,5 12,2 5 3 9 5 N 1027,9 1,3 7 0,0
14.11.2017 10:00:00 1,4 1,3 1,5 5,5 12,2 3 1 9 5 NW 1028,0 0,2 0 0,0
14.11.2017 09:00:00 1,4 1,3 1,0 5,5 12,2 0 0 6 3 N 1027,5 0,1 0 0,0
14.11.2017 08:00:00 0,9 0,8 0,5 5,6 12,2 4 2 7 4 N 1027,2 0,2 0 0,0
14.11.2017 07:00:00 0,9 0,8 -0,1 5,7 12,2 5 3 8 5 NE 1026,1 0,2 0 0,0
14.11.2017 06:00:00 -0,1 -0,4 -3,0 6,0 12,2 3 2 8 4 ESE 1026,0 1,8 0 0,0
14.11.2017 05:00:00 -0,9 -1,3 -2,9 6,2 12,2 5 3 5 3 NNW 1025,5 0,3 0 0,0
14.11.2017 04:00:00 -0,3 -0,9 -2,1 6,4 12,2 0 0 5 3 N 1025,3 0,9 0 0,0
14.11.2017 03:00:00 1,2 0,6 -0,7 6,6 12,2 2 1 6 4 E 1024,9 2,3 0 0,0
14.11.2017 02:00:00 2,5 1,9 1,2 6,7 12,2 3 2 5 3 E 1024,3 4,2 0 0,0
14.11.2017 01:00:00 3,7 3,0 2,8 6,7 12,2 0 0 4 2 N 1023,9 11 0 0,0
14.11.2017 00:00:00 4,1 2,9 3,5 6,8 12,3 4 2 21 12 N 1023,8 20 0 1,2
13.11.2017 23:00:00 4,1 3,4 3,3 6,9 12,3 9 5 17 9 NE 1023,5 9 0 0,2
13.11.2017 22:00:00 3,4 3,0 2,9 7,0 12,3 5 3 8 4 N 1023,2 11 0 0,2
13.11.2017 21:00:00 3,5 3,2 1,4 7,1 12,3 0 0 8 4 N 1022,8 17 0 0,0
13.11.2017 20:00:00 2,0 1,6 -0,5 7,3 12,3 2 1 6 3 ESE 1022,3 11 0 0,0

tt = Température de l'air
td = dewpoint
tt 5cm = Température de l'air 5cm
tt -20cm = Température de l'air -20cm
tt -100cm = Température de l'air -100cm
ff = Vitesse du vent
fx = gusts
dd = Direction du vent
ppp = reduced air pressure
vv = visibility
sd = Ensoleillement
rr = Quantités de précipitations

stations d'obs. à proximité